owner,sensor,date,latitude,longitude,vertical_datum,sea_water_temperature,qcFlag 
TABS,ioos:station:wmo:42043:1,2015-03-01T00:00:00Z,28.9818,-94.9186,-2.0,13.78,11111222 
TABS,ioos:station:wmo:42043:1,2015-03-01T00:30:00Z,28.9818,-94.9186,-2.0,13.77,11111222 
TABS,ioos:station:wmo:42043:1,2015-03-01T01:00:00Z,28.9818,-94.9186,-2.0,13.68,11111222 
TABS,ioos:station:wmo:42043:1,2015-03-01T01:30:00Z,28.9818,-94.9186,-2.0,13.65,11111222 
TABS,ioos:station:wmo:42043:1,2015-03-01T02:00:00Z,28.9818,-94.9186,-2.0,13.63,11111222 
TABS,ioos:station:wmo:42043:1,2015-03-01T02:30:00Z,28.9818,-94.9186,-2.0,13.63,11111222 
TABS,ioos:station:wmo:42043:1,2015-03-01T03:00:00Z,28.9818,-94.9186,-2.0,13.64,11111222 
TABS,ioos:station:wmo:42043:1,2015-03-01T03:30:00Z,28.9818,-94.9186,-2.0,13.62,11111222 
TABS,ioos:station:wmo:42043:1,2015-03-01T04:00:00Z,28.9818,-94.9186,-2.0,13.62,11111222 
TABS,ioos:station:wmo:42043:1,2015-03-01T04:30:00Z,28.9818,-94.9186,-2.0,13.62,11111222 
TABS,ioos:station:wmo:42043:1,2015-03-01T05:00:00Z,28.9818,-94.9186,-2.0,13.63,11111222 
TABS,ioos:station:wmo:42043:1,2015-03-01T05:30:00Z,28.9818,-94.9186,-2.0,13.66,11111222 
TABS,ioos:station:wmo:42043:1,2015-03-01T06:00:00Z,28.9818,-94.9186,-2.0,13.67,11111222 
TABS,ioos:station:wmo:42043:1,2015-03-01T06:30:00Z,28.9818,-94.9186,-2.0,13.71,11111222 
TABS,ioos:station:wmo:42043:1,2015-03-01T07:00:00Z,28.9818,-94.9186,-2.0,13.73,11111222 
TABS,ioos:station:wmo:42043:1,2015-03-01T07:30:00Z,28.9818,-94.9186,-2.0,13.72,11111222 
TABS,ioos:station:wmo:42043:1,2015-03-01T08:00:00Z,28.9818,-94.9186,-2.0,13.68,11111222 
TABS,ioos:station:wmo:42043:1,2015-03-01T08:30:00Z,28.9818,-94.9186,-2.0,13.64,11111222 
TABS,ioos:station:wmo:42043:1,2015-03-01T09:00:00Z,28.9818,-94.9186,-2.0,13.64,11111222 
TABS,ioos:station:wmo:42043:1,2015-03-01T09:30:00Z,28.9818,-94.9186,-2.0,13.61,11111222 
TABS,ioos:station:wmo:42043:1,2015-03-01T10:00:00Z,28.9818,-94.9186,-2.0,13.56,11111222 
TABS,ioos:station:wmo:42043:1,2015-03-01T10:30:00Z,28.9818,-94.9186,-2.0,13.55,11111222 
TABS,ioos:station:wmo:42043:1,2015-03-01T11:00:00Z,28.9818,-94.9186,-2.0,13.58,11111222 
TABS,ioos:station:wmo:42043:1,2015-03-01T11:30:00Z,28.9818,-94.9186,-2.0,13.56,11111222 
TABS,ioos:station:wmo:42043:1,2015-03-01T12:00:00Z,28.9818,-94.9186,-2.0,13.58,11111222 
TABS,ioos:station:wmo:42043:1,2015-03-01T12:30:00Z,28.9818,-94.9186,-2.0,13.57,11111222 
TABS,ioos:station:wmo:42043:1,2015-03-01T13:00:00Z,28.9818,-94.9186,-2.0,13.57,11111222 
TABS,ioos:station:wmo:42043:1,2015-03-01T13:30:00Z,28.9818,-94.9186,-2.0,13.57,11111222 
TABS,ioos:station:wmo:42043:1,2015-03-01T14:00:00Z,28.9818,-94.9186,-2.0,13.58,11111222 
TABS,ioos:station:wmo:42043:1,2015-03-01T14:30:00Z,28.9818,-94.9186,-2.0,13.59,11111222 
TABS,ioos:station:wmo:42043:1,2015-03-01T15:00:00Z,28.9818,-94.9186,-2.0,13.62,11111222 
TABS,ioos:station:wmo:42043:1,2015-03-01T15:30:00Z,28.9818,-94.9186,-2.0,13.64,11111222 
TABS,ioos:station:wmo:42043:1,2015-03-01T16:00:00Z,28.9818,-94.9186,-2.0,13.74,11111222 
TABS,ioos:station:wmo:42043:1,2015-03-01T16:30:00Z,28.9818,-94.9186,-2.0,13.78,11111222 
TABS,ioos:station:wmo:42043:1,2015-03-01T17:00:00Z,28.9818,-94.9186,-2.0,13.84,11111222 
TABS,ioos:station:wmo:42043:1,2015-03-01T17:30:00Z,28.9818,-94.9186,-2.0,14.0,11111222 
TABS,ioos:station:wmo:42043:1,2015-03-01T18:00:00Z,28.9818,-94.9186,-2.0,14.02,11111222 
TABS,ioos:station:wmo:42043:1,2015-03-01T18:30:00Z,28.9818,-94.9186,-2.0,13.99,11111222 
TABS,ioos:station:wmo:42043:1,2015-03-01T19:00:00Z,28.9818,-94.9186,-2.0,14.17,11111222 
TABS,ioos:station:wmo:42043:1,2015-03-01T19:30:00Z,28.9818,-94.9186,-2.0,14.17,11111222 
TABS,ioos:station:wmo:42043:1,2015-03-01T20:00:00Z,28.9818,-94.9186,-2.0,14.13,11111222 
TABS,ioos:station:wmo:42043:1,2015-03-01T20:30:00Z,28.9818,-94.9186,-2.0,14.13,11111222 
TABS,ioos:station:wmo:42043:1,2015-03-01T21:00:00Z,28.9818,-94.9186,-2.0,14.2,11111222 
TABS,ioos:station:wmo:42043:1,2015-03-01T21:30:00Z,28.9818,-94.9186,-2.0,14.3,11111222 
TABS,ioos:station:wmo:42043:1,2015-03-01T22:00:00Z,28.9818,-94.9186,-2.0,14.37,11111222 
TABS,ioos:station:wmo:42043:1,2015-03-01T22:30:00Z,28.9818,-94.9186,-2.0,14.35,11111222 
TABS,ioos:station:wmo:42043:1,2015-03-01T23:00:00Z,28.9818,-94.9186,-2.0,14.39,11111222 
TABS,ioos:station:wmo:42043:1,2015-03-01T23:30:00Z,28.9818,-94.9186,-2.0,14.45,11111222 
TABS,ioos:station:wmo:42043:1,2015-03-02T00:00:00Z,28.9818,-94.9186,-2.0,14.27,11111222 
TABS,ioos:station:wmo:42043:1,2015-03-02T00:30:00Z,28.9818,-94.9186,-2.0,14.18,11111222 
TABS,ioos:station:wmo:42043:1,2015-03-02T01:00:00Z,28.9818,-94.9186,-2.0,14.23,11111222 
TABS,ioos:station:wmo:42043:1,2015-03-02T01:30:00Z,28.9818,-94.9186,-2.0,14.32,11111222 
TABS,ioos:station:wmo:42043:1,2015-03-02T02:00:00Z,28.9818,-94.9186,-2.0,14.44,11111222 
TABS,ioos:station:wmo:42043:1,2015-03-02T02:30:00Z,28.9818,-94.9186,-2.0,14.44,11111222 
TABS,ioos:station:wmo:42043:1,2015-03-02T03:00:00Z,28.9818,-94.9186,-2.0,14.42,11111222 
TABS,ioos:station:wmo:42043:1,2015-03-02T03:30:00Z,28.9818,-94.9186,-2.0,14.33,11111222 
TABS,ioos:station:wmo:42043:1,2015-03-02T04:00:00Z,28.9818,-94.9186,-2.0,14.3,11111222 
TABS,ioos:station:wmo:42043:1,2015-03-02T04:30:00Z,28.9818,-94.9186,-2.0,14.46,11111222 
TABS,ioos:station:wmo:42043:1,2015-03-02T05:00:00Z,28.9818,-94.9186,-2.0,14.81,11111222 
TABS,ioos:station:wmo:42043:1,2015-03-02T05:30:00Z,28.9818,-94.9186,-2.0,14.68,11111222 
TABS,ioos:station:wmo:42043:1,2015-03-02T06:00:00Z,28.9818,-94.9186,-2.0,14.52,11111222 
TABS,ioos:station:wmo:42043:1,2015-03-02T06:30:00Z,28.9818,-94.9186,-2.0,14.36,11111222 
TABS,ioos:station:wmo:42043:1,2015-03-02T07:00:00Z,28.9818,-94.9186,-2.0,14.46,11111222 
TABS,ioos:station:wmo:42043:1,2015-03-02T07:30:00Z,28.9818,-94.9186,-2.0,14.42,11111222 
TABS,ioos:station:wmo:42043:1,2015-03-02T08:00:00Z,28.9818,-94.9186,-2.0,14.27,11111222 
TABS,ioos:station:wmo:42043:1,2015-03-02T08:30:00Z,28.9818,-94.9186,-2.0,14.27,11111222 
TABS,ioos:station:wmo:42043:1,2015-03-02T09:00:00Z,28.9818,-94.9186,-2.0,14.34,11111222 
TABS,ioos:station:wmo:42043:1,2015-03-02T09:30:00Z,28.9818,-94.9186,-2.0,14.28,11111222 
TABS,ioos:station:wmo:42043:1,2015-03-02T10:00:00Z,28.9818,-94.9186,-2.0,14.21,11111222 
TABS,ioos:station:wmo:42043:1,2015-03-02T10:30:00Z,28.9818,-94.9186,-2.0,14.12,11111222 
TABS,ioos:station:wmo:42043:1,2015-03-02T11:00:00Z,28.9818,-94.9186,-2.0,14.12,11111222 
TABS,ioos:station:wmo:42043:1,2015-03-02T11:30:00Z,28.9818,-94.9186,-2.0,14.1,11111222 
TABS,ioos:station:wmo:42043:1,2015-03-02T12:00:00Z,28.9818,-94.9186,-2.0,14.06,11111222 
TABS,ioos:station:wmo:42043:1,2015-03-02T12:30:00Z,28.9818,-94.9186,-2.0,13.99,11111222 
TABS,ioos:station:wmo:42043:1,2015-03-02T13:00:00Z,28.9818,-94.9186,-2.0,13.95,11111222 
TABS,ioos:station:wmo:42043:1,2015-03-02T13:30:00Z,28.9818,-94.9186,-2.0,13.92,11111222 
TABS,ioos:station:wmo:42043:1,2015-03-02T14:00:00Z,28.9818,-94.9186,-2.0,13.9,11111222 
TABS,ioos:station:wmo:42043:1,2015-03-02T14:30:00Z,28.9818,-94.9186,-2.0,13.88,11111222 
TABS,ioos:station:wmo:42043:1,2015-03-02T15:00:00Z,28.9818,-94.9186,-2.0,13.84,11111222 
TABS,ioos:station:wmo:42043:1,2015-03-02T15:30:00Z,28.9818,-94.9186,-2.0,13.83,11111222 
TABS,ioos:station:wmo:42043:1,2015-03-02T16:00:00Z,28.9818,-94.9186,-2.0,13.82,11111222 
TABS,ioos:station:wmo:42043:1,2015-03-02T16:30:00Z,28.9818,-94.9186,-2.0,13.82,11111222 
TABS,ioos:station:wmo:42043:1,2015-03-02T17:00:00Z,28.9818,-94.9186,-2.0,13.84,11111222 
TABS,ioos:station:wmo:42043:1,2015-03-02T17:30:00Z,28.9818,-94.9186,-2.0,13.86,11111222 
TABS,ioos:station:wmo:42043:1,2015-03-02T18:00:00Z,28.9818,-94.9186,-2.0,13.86,11111222 
TABS,ioos:station:wmo:42043:1,2015-03-02T18:30:00Z,28.9818,-94.9186,-2.0,13.89,11111222 
TABS,ioos:station:wmo:42043:1,2015-03-02T19:00:00Z,28.9818,-94.9186,-2.0,13.91,11111222 
TABS,ioos:station:wmo:42043:1,2015-03-02T19:30:00Z,28.9818,-94.9186,-2.0,13.93,11111222 
TABS,ioos:station:wmo:42043:1,2015-03-02T20:00:00Z,28.9818,-94.9186,-2.0,13.99,11111222 
TABS,ioos:station:wmo:42043:1,2015-03-02T20:30:00Z,28.9818,-94.9186,-2.0,14.01,11111222 
TABS,ioos:station:wmo:42043:1,2015-03-02T21:00:00Z,28.9818,-94.9186,-2.0,14.06,11111222 
TABS,ioos:station:wmo:42043:1,2015-03-02T21:30:00Z,28.9818,-94.9186,-2.0,14.09,11111222 
TABS,ioos:station:wmo:42043:1,2015-03-02T22:00:00Z,28.9818,-94.9186,-2.0,14.12,11111222 
TABS,ioos:station:wmo:42043:1,2015-03-02T22:30:00Z,28.9818,-94.9186,-2.0,14.14,11111222 
TABS,ioos:station:wmo:42043:1,2015-03-02T23:00:00Z,28.9818,-94.9186,-2.0,14.17,11111222 
TABS,ioos:station:wmo:42043:1,2015-03-02T23:30:00Z,28.9818,-94.9186,-2.0,14.18,11111222 
TABS,ioos:station:wmo:42043:1,2015-03-03T00:00:00Z,28.9818,-94.9186,-2.0,14.18,11111222 
TABS,ioos:station:wmo:42043:1,2015-03-03T00:30:00Z,28.9818,-94.9186,-2.0,14.17,11111222 
TABS,ioos:station:wmo:42043:1,2015-03-03T01:00:00Z,28.9818,-94.9186,-2.0,14.17,11111222 
TABS,ioos:station:wmo:42043:1,2015-03-03T01:30:00Z,28.9818,-94.9186,-2.0,14.18,11111222 
TABS,ioos:station:wmo:42043:1,2015-03-03T02:00:00Z,28.9818,-94.9186,-2.0,14.18,11111222 
TABS,ioos:station:wmo:42043:1,2015-03-03T02:30:00Z,28.9818,-94.9186,-2.0,14.17,11111222 
TABS,ioos:station:wmo:42043:1,2015-03-03T03:00:00Z,28.9818,-94.9186,-2.0,14.15,11111222 
TABS,ioos:station:wmo:42043:1,2015-03-03T03:30:00Z,28.9818,-94.9186,-2.0,14.14,11111222 
TABS,ioos:station:wmo:42043:1,2015-03-03T04:00:00Z,28.9818,-94.9186,-2.0,14.13,11111222 
TABS,ioos:station:wmo:42043:1,2015-03-03T04:30:00Z,28.9818,-94.9186,-2.0,14.14,11111222 
TABS,ioos:station:wmo:42043:1,2015-03-03T05:00:00Z,28.9818,-94.9186,-2.0,14.12,11111222 
TABS,ioos:station:wmo:42043:1,2015-03-03T05:30:00Z,28.9818,-94.9186,-2.0,14.12,11111222 
TABS,ioos:station:wmo:42043:1,2015-03-03T06:00:00Z,28.9818,-94.9186,-2.0,14.12,11111222 
TABS,ioos:station:wmo:42043:1,2015-03-03T06:30:00Z,28.9818,-94.9186,-2.0,14.15,11111222 
TABS,ioos:station:wmo:42043:1,2015-03-03T07:00:00Z,28.9818,-94.9186,-2.0,14.14,11111222 
TABS,ioos:station:wmo:42043:1,2015-03-03T07:30:00Z,28.9818,-94.9186,-2.0,14.13,11111222 
TABS,ioos:station:wmo:42043:1,2015-03-03T08:00:00Z,28.9818,-94.9186,-2.0,14.11,11111222 
TABS,ioos:station:wmo:42043:1,2015-03-03T08:30:00Z,28.9818,-94.9186,-2.0,14.11,11111222 
TABS,ioos:station:wmo:42043:1,2015-03-03T09:00:00Z,28.9818,-94.9186,-2.0,14.1,11111222 
TABS,ioos:station:wmo:42043:1,2015-03-03T09:30:00Z,28.9818,-94.9186,-2.0,14.1,11111222 
TABS,ioos:station:wmo:42043:1,2015-03-03T10:00:00Z,28.9818,-94.9186,-2.0,14.09,11111222 
TABS,ioos:station:wmo:42043:1,2015-03-03T10:30:00Z,28.9818,-94.9186,-2.0,14.07,11111222 
TABS,ioos:station:wmo:42043:1,2015-03-03T11:00:00Z,28.9818,-94.9186,-2.0,14.06,11111222 
TABS,ioos:station:wmo:42043:1,2015-03-03T11:30:00Z,28.9818,-94.9186,-2.0,14.06,11111222 
TABS,ioos:station:wmo:42043:1,2015-03-03T12:00:00Z,28.9818,-94.9186,-2.0,14.07,11111222 
TABS,ioos:station:wmo:42043:1,2015-03-03T12:30:00Z,28.9818,-94.9186,-2.0,14.06,11111222 
TABS,ioos:station:wmo:42043:1,2015-03-03T13:00:00Z,28.9818,-94.9186,-2.0,14.07,11111222 
TABS,ioos:station:wmo:42043:1,2015-03-03T13:30:00Z,28.9818,-94.9186,-2.0,14.06,11111222 
TABS,ioos:station:wmo:42043:1,2015-03-03T14:00:00Z,28.9818,-94.9186,-2.0,14.07,11111222 
TABS,ioos:station:wmo:42043:1,2015-03-03T14:30:00Z,28.9818,-94.9186,-2.0,14.01,11111222 
TABS,ioos:station:wmo:42043:1,2015-03-03T15:00:00Z,28.9818,-94.9186,-2.0,14.02,11111222 
TABS,ioos:station:wmo:42043:1,2015-03-03T15:30:00Z,28.9818,-94.9186,-2.0,14.12,11111222 
TABS,ioos:station:wmo:42043:1,2015-03-03T16:00:00Z,28.9818,-94.9186,-2.0,14.25,11111222 
TABS,ioos:station:wmo:42043:1,2015-03-03T16:30:00Z,28.9818,-94.9186,-2.0,14.31,11111222 
TABS,ioos:station:wmo:42043:1,2015-03-03T17:00:00Z,28.9818,-94.9186,-2.0,14.45,11111222 
TABS,ioos:station:wmo:42043:1,2015-03-03T17:30:00Z,28.9818,-94.9186,-2.0,14.53,11111222 
TABS,ioos:station:wmo:42043:1,2015-03-03T18:00:00Z,28.9818,-94.9186,-2.0,14.6,11111222 
TABS,ioos:station:wmo:42043:1,2015-03-03T18:30:00Z,28.9818,-94.9186,-2.0,14.7,11111222 
TABS,ioos:station:wmo:42043:1,2015-03-03T19:00:00Z,28.9818,-94.9186,-2.0,14.8,11111222 
TABS,ioos:station:wmo:42043:1,2015-03-03T19:30:00Z,28.9818,-94.9186,-2.0,14.88,11111222 
TABS,ioos:station:wmo:42043:1,2015-03-03T20:00:00Z,28.9818,-94.9186,-2.0,14.92,11111222 
TABS,ioos:station:wmo:42043:1,2015-03-03T20:30:00Z,28.9818,-94.9186,-2.0,15.04,11111222 
TABS,ioos:station:wmo:42043:1,2015-03-03T21:00:00Z,28.9818,-94.9186,-2.0,15.24,11111222 
TABS,ioos:station:wmo:42043:1,2015-03-03T21:30:00Z,28.9818,-94.9186,-2.0,15.38,11111222 
TABS,ioos:station:wmo:42043:1,2015-03-03T22:00:00Z,28.9818,-94.9186,-2.0,15.39,11111222 
TABS,ioos:station:wmo:42043:1,2015-03-03T22:30:00Z,28.9818,-94.9186,-2.0,15.29,11111222 
TABS,ioos:station:wmo:42043:1,2015-03-03T23:00:00Z,28.9818,-94.9186,-2.0,15.24,11111222 
TABS,ioos:station:wmo:42043:1,2015-03-03T23:30:00Z,28.9818,-94.9186,-2.0,15.22,11111222 
TABS,ioos:station:wmo:42043:1,2015-03-04T00:00:00Z,28.9818,-94.9186,-2.0,15.38,11111222 
TABS,ioos:station:wmo:42043:1,2015-03-04T00:30:00Z,28.9818,-94.9186,-2.0,15.35,11111222 
TABS,ioos:station:wmo:42043:1,2015-03-04T01:00:00Z,28.9818,-94.9186,-2.0,15.31,11111222 
TABS,ioos:station:wmo:42043:1,2015-03-04T01:30:00Z,28.9818,-94.9186,-2.0,15.31,11111222 
TABS,ioos:station:wmo:42043:1,2015-03-04T02:00:00Z,28.9818,-94.9186,-2.0,15.3,11111222 
TABS,ioos:station:wmo:42043:1,2015-03-04T02:30:00Z,28.9818,-94.9186,-2.0,15.31,11111222 
TABS,ioos:station:wmo:42043:1,2015-03-04T03:00:00Z,28.9818,-94.9186,-2.0,15.29,11111222 
TABS,ioos:station:wmo:42043:1,2015-03-04T03:30:00Z,28.9818,-94.9186,-2.0,15.29,11111222 
TABS,ioos:station:wmo:42043:1,2015-03-04T04:00:00Z,28.9818,-94.9186,-2.0,15.29,11111222 
TABS,ioos:station:wmo:42043:1,2015-03-04T04:30:00Z,28.9818,-94.9186,-2.0,15.28,11111222 
TABS,ioos:station:wmo:42043:1,2015-03-04T05:00:00Z,28.9818,-94.9186,-2.0,15.28,11111222 
TABS,ioos:station:wmo:42043:1,2015-03-04T05:30:00Z,28.9818,-94.9186,-2.0,15.24,11111222 
TABS,ioos:station:wmo:42043:1,2015-03-04T06:00:00Z,28.9818,-94.9186,-2.0,15.22,11111222 
TABS,ioos:station:wmo:42043:1,2015-03-04T06:30:00Z,28.9818,-94.9186,-2.0,15.2,11111222 
TABS,ioos:station:wmo:42043:1,2015-03-04T07:00:00Z,28.9818,-94.9186,-2.0,15.22,11111222 
TABS,ioos:station:wmo:42043:1,2015-03-04T07:30:00Z,28.9818,-94.9186,-2.0,15.22,11111222 
TABS,ioos:station:wmo:42043:1,2015-03-04T08:00:00Z,28.9818,-94.9186,-2.0,15.16,11111222 
TABS,ioos:station:wmo:42043:1,2015-03-04T08:30:00Z,28.9818,-94.9186,-2.0,15.15,11111222 
TABS,ioos:station:wmo:42043:1,2015-03-04T09:00:00Z,28.9818,-94.9186,-2.0,15.15,11111222 
TABS,ioos:station:wmo:42043:1,2015-03-04T09:30:00Z,28.9818,-94.9186,-2.0,15.15,11111222 
TABS,ioos:station:wmo:42043:1,2015-03-04T10:00:00Z,28.9818,-94.9186,-2.0,15.07,11111222 
TABS,ioos:station:wmo:42043:1,2015-03-04T10:30:00Z,28.9818,-94.9186,-2.0,14.98,11111222 
TABS,ioos:station:wmo:42043:1,2015-03-04T11:00:00Z,28.9818,-94.9186,-2.0,14.94,11111222 
TABS,ioos:station:wmo:42043:1,2015-03-04T11:30:00Z,28.9818,-94.9186,-2.0,14.87,11111222 
TABS,ioos:station:wmo:42043:1,2015-03-04T12:00:00Z,28.9818,-94.9186,-2.0,14.77,11111222 
TABS,ioos:station:wmo:42043:1,2015-03-04T12:30:00Z,28.9818,-94.9186,-2.0,14.71,11111222 
TABS,ioos:station:wmo:42043:1,2015-03-04T13:00:00Z,28.9818,-94.9186,-2.0,14.67,11111222 
TABS,ioos:station:wmo:42043:1,2015-03-04T13:30:00Z,28.9818,-94.9186,-2.0,14.62,11111222 
TABS,ioos:station:wmo:42043:1,2015-03-04T14:00:00Z,28.9818,-94.9186,-2.0,14.6,11111222 
TABS,ioos:station:wmo:42043:1,2015-03-04T14:30:00Z,28.9818,-94.9186,-2.0,14.59,11111222 
TABS,ioos:station:wmo:42043:1,2015-03-04T15:00:00Z,28.9818,-94.9186,-2.0,14.57,11111222 
TABS,ioos:station:wmo:42043:1,2015-03-04T15:30:00Z,28.9818,-94.9186,-2.0,14.6,11111222 
TABS,ioos:station:wmo:42043:1,2015-03-04T16:00:00Z,28.9818,-94.9186,-2.0,14.6,11111222 
TABS,ioos:station:wmo:42043:1,2015-03-04T16:30:00Z,28.9818,-94.9186,-2.0,14.57,11111222 
TABS,ioos:station:wmo:42043:1,2015-03-04T17:00:00Z,28.9818,-94.9186,-2.0,14.53,11111222 
TABS,ioos:station:wmo:42043:1,2015-03-04T17:30:00Z,28.9818,-94.9186,-2.0,14.5,11111222 
TABS,ioos:station:wmo:42043:1,2015-03-04T18:00:00Z,28.9818,-94.9186,-2.0,14.52,11111222 
TABS,ioos:station:wmo:42043:1,2015-03-04T18:30:00Z,28.9818,-94.9186,-2.0,14.59,11111222 
TABS,ioos:station:wmo:42043:1,2015-03-04T19:00:00Z,28.9818,-94.9186,-2.0,14.61,11111222 
TABS,ioos:station:wmo:42043:1,2015-03-04T19:30:00Z,28.9818,-94.9186,-2.0,14.66,11111222 
TABS,ioos:station:wmo:42043:1,2015-03-04T20:00:00Z,28.9818,-94.9186,-2.0,14.68,11111222 
TABS,ioos:station:wmo:42043:1,2015-03-04T20:30:00Z,28.9818,-94.9186,-2.0,14.69,11111222 
TABS,ioos:station:wmo:42043:1,2015-03-04T21:00:00Z,28.9818,-94.9186,-2.0,14.69,11111222 
TABS,ioos:station:wmo:42043:1,2015-03-04T21:30:00Z,28.9818,-94.9186,-2.0,14.8,11111222 
TABS,ioos:station:wmo:42043:1,2015-03-04T22:00:00Z,28.9818,-94.9186,-2.0,14.76,11111222 
TABS,ioos:station:wmo:42043:1,2015-03-04T22:30:00Z,28.9818,-94.9186,-2.0,14.71,11111222 
TABS,ioos:station:wmo:42043:1,2015-03-04T23:00:00Z,28.9818,-94.9186,-2.0,14.73,11111222 
TABS,ioos:station:wmo:42043:1,2015-03-04T23:30:00Z,28.9818,-94.9186,-2.0,14.76,11111222 
TABS,ioos:station:wmo:42043:1,2015-03-05T00:00:00Z,28.9818,-94.9186,-2.0,14.81,11111222 
TABS,ioos:station:wmo:42043:1,2015-03-05T00:30:00Z,28.9818,-94.9186,-2.0,14.89,11111222 
TABS,ioos:station:wmo:42043:1,2015-03-05T01:00:00Z,28.9818,-94.9186,-2.0,14.82,11111222 
TABS,ioos:station:wmo:42043:1,2015-03-05T01:30:00Z,28.9818,-94.9186,-2.0,14.82,11111222 
TABS,ioos:station:wmo:42043:1,2015-03-05T02:00:00Z,28.9818,-94.9186,-2.0,14.81,11111222 
TABS,ioos:station:wmo:42043:1,2015-03-05T02:30:00Z,28.9818,-94.9186,-2.0,14.83,11111222 
TABS,ioos:station:wmo:42043:1,2015-03-05T03:00:00Z,28.9818,-94.9186,-2.0,14.8,11111222 
TABS,ioos:station:wmo:42043:1,2015-03-05T03:30:00Z,28.9818,-94.9186,-2.0,14.76,11111222 
TABS,ioos:station:wmo:42043:1,2015-03-05T04:00:00Z,28.9818,-94.9186,-2.0,14.8,11111222 
TABS,ioos:station:wmo:42043:1,2015-03-05T04:30:00Z,28.9818,-94.9186,-2.0,14.83,11111222 
TABS,ioos:station:wmo:42043:1,2015-03-05T05:00:00Z,28.9818,-94.9186,-2.0,14.98,11111222 
TABS,ioos:station:wmo:42043:1,2015-03-05T05:30:00Z,28.9818,-94.9186,-2.0,15.46,11111222 
TABS,ioos:station:wmo:42043:1,2015-03-05T18:30:00Z,28.9818,-94.9186,-2.0,30.0,11111222 
TABS,ioos:station:wmo:42043:1,2015-03-06T10:00:00Z,28.9818,-94.9186,-2.0,44.5,11144222 
TABS,ioos:station:wmo:42043:1,2015-03-06T11:30:00Z,28.9818,-94.9186,-2.0,53.0,11144222 
TABS,ioos:station:wmo:42043:1,2015-03-07T00:00:00Z,28.9818,-94.9186,-2.0,13.7,11111222 
TABS,ioos:station:wmo:42043:1,2015-03-07T00:30:00Z,28.9818,-94.9186,-2.0,13.66,11111222 
TABS,ioos:station:wmo:42043:1,2015-03-07T01:00:00Z,28.9818,-94.9186,-2.0,13.59,11111222 
TABS,ioos:station:wmo:42043:1,2015-03-07T01:30:00Z,28.9818,-94.9186,-2.0,13.54,11111222 
TABS,ioos:station:wmo:42043:1,2015-03-07T02:00:00Z,28.9818,-94.9186,-2.0,13.47,11111222 
TABS,ioos:station:wmo:42043:1,2015-03-07T02:30:00Z,28.9818,-94.9186,-2.0,13.49,11111222 
TABS,ioos:station:wmo:42043:1,2015-03-07T03:00:00Z,28.9818,-94.9186,-2.0,13.61,11111222 
TABS,ioos:station:wmo:42043:1,2015-03-07T03:30:00Z,28.9818,-94.9186,-2.0,13.74,11111222 
TABS,ioos:station:wmo:42043:1,2015-03-07T04:00:00Z,28.9818,-94.9186,-2.0,13.73,11111222 
TABS,ioos:station:wmo:42043:1,2015-03-07T04:30:00Z,28.9818,-94.9186,-2.0,14.07,11111222 
TABS,ioos:station:wmo:42043:1,2015-03-07T05:00:00Z,28.9818,-94.9186,-2.0,14.35,11111222 
TABS,ioos:station:wmo:42043:1,2015-03-07T05:30:00Z,28.9818,-94.9186,-2.0,14.46,11111222 
TABS,ioos:station:wmo:42043:1,2015-03-07T06:00:00Z,28.9818,-94.9186,-2.0,14.51,11111222 
TABS,ioos:station:wmo:42043:1,2015-03-07T06:30:00Z,28.9818,-94.9186,-2.0,14.52,11111222 
TABS,ioos:station:wmo:42043:1,2015-03-07T07:00:00Z,28.9818,-94.9186,-2.0,14.53,11111222 
TABS,ioos:station:wmo:42043:1,2015-03-07T07:30:00Z,28.9818,-94.9186,-2.0,14.53,11111222 
TABS,ioos:station:wmo:42043:1,2015-03-07T08:00:00Z,28.9818,-94.9186,-2.0,14.53,11111222 
TABS,ioos:station:wmo:42043:1,2015-03-07T08:30:00Z,28.9818,-94.9186,-2.0,14.52,11111222 
TABS,ioos:station:wmo:42043:1,2015-03-07T09:00:00Z,28.9818,-94.9186,-2.0,14.51,11111222 
TABS,ioos:station:wmo:42043:1,2015-03-07T09:30:00Z,28.9818,-94.9186,-2.0,14.48,11111222 
TABS,ioos:station:wmo:42043:1,2015-03-07T10:00:00Z,28.9818,-94.9186,-2.0,14.47,11111222 
TABS,ioos:station:wmo:42043:1,2015-03-07T10:30:00Z,28.9818,-94.9186,-2.0,14.45,11111222 
TABS,ioos:station:wmo:42043:1,2015-03-07T11:00:00Z,28.9818,-94.9186,-2.0,14.44,11111222 
TABS,ioos:station:wmo:42043:1,2015-03-07T11:30:00Z,28.9818,-94.9186,-2.0,14.45,11111222 
TABS,ioos:station:wmo:42043:1,2015-03-07T12:00:00Z,28.9818,-94.9186,-2.0,14.45,11111222 
TABS,ioos:station:wmo:42043:1,2015-03-07T12:30:00Z,28.9818,-94.9186,-2.0,14.47,11111222 
TABS,ioos:station:wmo:42043:1,2015-03-07T13:00:00Z,28.9818,-94.9186,-2.0,14.5,11111222 
TABS,ioos:station:wmo:42043:1,2015-03-07T13:30:00Z,28.9818,-94.9186,-2.0,14.52,11111222 
TABS,ioos:station:wmo:42043:1,2015-03-07T14:00:00Z,28.9818,-94.9186,-2.0,14.54,11111222 
TABS,ioos:station:wmo:42043:1,2015-03-07T14:30:00Z,28.9818,-94.9186,-2.0,14.52,11111222 
TABS,ioos:station:wmo:42043:1,2015-03-07T15:00:00Z,28.9818,-94.9186,-2.0,14.52,11111222 
TABS,ioos:station:wmo:42043:1,2015-03-07T15:30:00Z,28.9818,-94.9186,-2.0,14.51,11111222 
TABS,ioos:station:wmo:42043:1,2015-03-07T16:00:00Z,28.9818,-94.9186,-2.0,14.51,11111222 
TABS,ioos:station:wmo:42043:1,2015-03-07T16:30:00Z,28.9818,-94.9186,-2.0,14.52,11111222 
TABS,ioos:station:wmo:42043:1,2015-03-07T17:00:00Z,28.9818,-94.9186,-2.0,14.53,11111222 
TABS,ioos:station:wmo:42043:1,2015-03-07T17:30:00Z,28.9818,-94.9186,-2.0,14.58,11111222 
TABS,ioos:station:wmo:42043:1,2015-03-07T18:00:00Z,28.9818,-94.9186,-2.0,14.65,11111222 
TABS,ioos:station:wmo:42043:1,2015-03-07T18:30:00Z,28.9818,-94.9186,-2.0,14.64,11111222 
TABS,ioos:station:wmo:42043:1,2015-03-07T19:00:00Z,28.9818,-94.9186,-2.0,14.63,11111222 
TABS,ioos:station:wmo:42043:1,2015-03-07T19:30:00Z,28.9818,-94.9186,-2.0,14.64,11111222 
TABS,ioos:station:wmo:42043:1,2015-03-07T20:00:00Z,28.9818,-94.9186,-2.0,14.65,11111222 
TABS,ioos:station:wmo:42043:1,2015-03-07T20:30:00Z,28.9818,-94.9186,-2.0,14.66,11111222 
TABS,ioos:station:wmo:42043:1,2015-03-07T21:00:00Z,28.9818,-94.9186,-2.0,14.75,11111222 
TABS,ioos:station:wmo:42043:1,2015-03-07T21:30:00Z,28.9818,-94.9186,-2.0,14.65,11111222 
TABS,ioos:station:wmo:42043:1,2015-03-07T22:00:00Z,28.9818,-94.9186,-2.0,14.86,11111222 
TABS,ioos:station:wmo:42043:1,2015-03-07T22:30:00Z,28.9818,-94.9186,-2.0,14.9,11111222 
TABS,ioos:station:wmo:42043:1,2015-03-07T23:00:00Z,28.9818,-94.9186,-2.0,14.81,11111222 
TABS,ioos:station:wmo:42043:1,2015-03-07T23:30:00Z,28.9818,-94.9186,-2.0,14.69,11111222 
TABS,ioos:station:wmo:42043:1,2015-03-08T00:00:00Z,28.9818,-94.9186,-2.0,14.57,11111222 
TABS,ioos:station:wmo:42043:1,2015-03-08T00:30:00Z,28.9818,-94.9186,-2.0,14.48,11111222 
TABS,ioos:station:wmo:42043:1,2015-03-08T01:00:00Z,28.9818,-94.9186,-2.0,14.46,11111222 
TABS,ioos:station:wmo:42043:1,2015-03-08T01:30:00Z,28.9818,-94.9186,-2.0,14.48,11111222 
TABS,ioos:station:wmo:42043:1,2015-03-08T02:00:00Z,28.9818,-94.9186,-2.0,14.5,11111222 
TABS,ioos:station:wmo:42043:1,2015-03-08T02:30:00Z,28.9818,-94.9186,-2.0,14.45,11111222 
TABS,ioos:station:wmo:42043:1,2015-03-08T03:00:00Z,28.9818,-94.9186,-2.0,14.43,11111222 
TABS,ioos:station:wmo:42043:1,2015-03-08T03:30:00Z,28.9818,-94.9186,-2.0,14.44,11111222 
TABS,ioos:station:wmo:42043:1,2015-03-08T04:00:00Z,28.9818,-94.9186,-2.0,14.48,11111222 
TABS,ioos:station:wmo:42043:1,2015-03-08T04:30:00Z,28.9818,-94.9186,-2.0,14.54,11111222 
TABS,ioos:station:wmo:42043:1,2015-03-08T05:00:00Z,28.9818,-94.9186,-2.0,14.55,11111222 
TABS,ioos:station:wmo:42043:1,2015-03-08T05:30:00Z,28.9818,-94.9186,-2.0,14.55,11111222 
TABS,ioos:station:wmo:42043:1,2015-03-08T06:00:00Z,28.9818,-94.9186,-2.0,14.58,11111222 
TABS,ioos:station:wmo:42043:1,2015-03-08T06:30:00Z,28.9818,-94.9186,-2.0,14.59,11111222 